Home   Weather   Stuart   Past weeks
Flag for USA

Past Weather in Stuart, Florida, USA — Yesterday and Last 2 Weeks

Now
84 °F

Scattered clouds.


Feels Like: 87 °F
Forecast: 85 / 75 °F
Wind: 6 mph from North

Location: Witham Field Airport

Current Time: Oct 17, 2019 at 2:17:51 pm

Latest Report: Oct 17, 2019 at 12:47 pm


Visibility: 7 mi

Pressure: 29.94 "Hg

Humidity: 58%

Dew Point: 68 °F

Location of StuartLocation

Past Weather in Stuart — Graph

°F

Stuart Temperature Yesterday

Maximum temperature yesterday: 91 °F (at 3:47 pm)
Minimum temperature yesterday: 75 °F (at 1:35 am)
Average temperature yesterday: 81 °F

High & Low Weather Summary for the Past Weeks

 TemperatureHumidityPressure
High91 °F (Oct 16, 3:47 pm)94% (Oct 4, 7:47 am)30.10 "Hg (Oct 4, 7:47 am)
Low72 °F (Oct 4, 5:15 am)46% (Oct 16, 3:47 pm)29.79 "Hg (Oct 7, 5:50 pm)
Average79 °F74%29.96 "Hg
* Reported Oct 2 12:47 pm — Oct 17 12:47 pm, Stuart. Weather by CustomWeather, © 2019

Note: Actual official high and low records may vary slightly from our data, if they occured in-between our weather recording intervals... More about our weather records

Advertising

Stuart Weather History for the Previous 24 Hours

Scroll right to see more
 ConditionsComfort  
Time TempWeatherWind HumidityBarometerVisibility
12:47 pm
Thu, Oct 17
84 °FScattered clouds.6 mph58%29.94 "Hg7 mi
11:47 am84 °FPassing clouds.7 mph58%29.96 "Hg7 mi
9:47 am79 °FScattered clouds.7 mph79%29.96 "Hg6 mi
9:24 am77 °FScattered clouds.9 mph83%29.95 "Hg6 mi
8:47 am77 °FPartly sunny.9 mph83%29.95 "Hg6 mi
8:09 am75 °FPartly sunny.9 mph94%29.94 "Hg6 mi
7:47 am75 °FBroken clouds.9 mph94%29.92 "Hg6 mi
6:50 am77 °FPartly cloudy.7 mph89%29.91 "Hg7 mi
6:35 am77 °FPartly cloudy.8 mph83%29.91 "Hg10 mi
6:15 am77 °FPassing clouds.6 mph83%29.90 "Hg10 mi
5:55 am77 °FPassing clouds.5 mph89%29.90 "Hg10 mi
5:35 am77 °FPassing clouds.5 mph83%29.89 "Hg10 mi
5:15 am77 °FPassing clouds.3 mph83%29.89 "Hg10 mi
4:55 am77 °FPassing clouds.6 mph89%29.88 "Hg10 mi
4:15 am79 °FOvercast.8 mph84%29.89 "Hg10 mi
3:55 am77 °FPassing clouds.6 mph89%29.89 "Hg10 mi
3:35 am77 °FClear.6 mph89%29.89 "Hg10 mi
3:15 am77 °FClear.6 mph89%29.90 "Hg10 mi
2:55 am79 °FClear.5 mph84%29.90 "Hg10 mi
2:35 am77 °FClear.6 mph89%29.90 "Hg10 mi
2:15 am79 °FClear.6 mph84%29.91 "Hg10 mi
1:55 am79 °FClear.7 mph84%29.91 "Hg10 mi
1:35 am79 °FClear.7 mph84%29.91 "Hg10 mi
1:15 am79 °FPassing clouds.6 mph84%29.91 "Hg10 mi
12:55 am79 °FPassing clouds.7 mph79%29.92 "Hg10 mi
12:35 am79 °FPassing clouds.7 mph79%29.92 "Hg10 mi
12:15 am79 °FClear.9 mph79%29.93 "Hg10 mi
11:55 pm
Wed, Oct 16
79 °FPassing clouds.9 mph79%29.93 "Hg10 mi
11:35 pm81 °FPassing clouds.9 mph74%29.93 "Hg10 mi
11:15 pm81 °FClear.9 mph74%29.92 "Hg10 mi
10:55 pm81 °FClear.8 mph74%29.92 "Hg10 mi
10:35 pm81 °FClear.9 mph74%29.92 "Hg10 mi
9:55 pm81 °FClear.7 mph70%29.91 "Hg10 mi
8:47 pm82 °FPassing clouds.9 mph62%29.89 "Hg7 mi
7:47 pm84 °FPassing clouds.9 mph58%29.88 "Hg7 mi
6:47 pm88 °FScattered clouds.9 mph52%29.88 "Hg7 mi
5:47 pm90 °FScattered clouds.12 mph49%29.87 "Hg7 mi
4:47 pm91 °FScattered clouds.14 mph46%29.88 "Hg7 mi
3:47 pm91 °FBroken clouds.14 mph46%29.89 "Hg7 mi
2:47 pm90 °FBroken clouds.15 mph49%29.90 "Hg7 mi
Weather by CustomWeather, © 2019

See weather overview